#timestamp,LO_Frequency,Hit 
1500408015.2,286045709.9,N
1500408035.9,286045708.6,N
1500408055.7,286045708.4,N
1500408075.6,286045708.0,N
1500408095.4,286045710.8,N
1500408115.2,286045708.9,N
1500408135.1,286045712.8,N
1500408136.0,286045712.8,N
1500408155.8,286045712.9,N
1500408175.7,286045707.3,N
1500408195.5,286045710.0,N
1500408215.3,286045708.3,N
1500408235.2,286045705.9,N
1500408255.0,286045707.7,N
1500408255.9,286045707.7,N
1500408275.7,286045710.0,N
1500408295.6,286045710.8,N
1500408315.4,286045707.2,N
1500408335.3,286045709.4,N
1500408355.1,286045708.2,N
1500408375.8,286045711.6,N
1500408395.7,286045710.0,N
1500408415.5,286045708.4,N
1500408435.3,286045707.5,N
1500408455.2,286045710.9,N
1500408475.0,286045710.2,N
1500408475.9,286045710.2,N
1500408495.8,286045713.0,N
1500408515.6,286045712.9,N
1500408535.4,286045712.8,N
1500408555.3,286045714.4,N
1500408575.1,286045716.8,N
1500408595.9,286045722.8,N
1500408615.7,286045723.7,N
1500408635.5,286045725.5,N
1500408655.4,286045724.6,N
1500408675.2,286045725.3,N
1500408695.0,286045719.8,N
1500408695.9,286045719.8,N
1500408715.8,286045724.1,N
1500408735.6,286045725.4,N
1500408755.5,286045723.0,N
1500408775.3,286045726.2,N
1500408795.1,286045723.5,N
1500408815.9,286045724.5,N
1500408835.7,286045724.7,N
1500408855.5,286045726.7,N
1500408875.4,286045725.1,N
1500408895.2,286045726.8,N
1500408915.0,286045729.0,N
1500408916.0,286045729.0,N
1500408935.8,286045730.5,N
1500408955.6,286045732.3,N
1500408975.5,286045732.4,N
1500408995.3,286045732.9,N
1500409015.1,286045731.1,N
1500409035.9,286045731.0,N
1500409055.7,286045731.4,N
1500409075.6,286045731.3,N
1500409095.4,286045731.6,N
1500409115.2,286045735.0,N
1500409135.1,286045734.9,N
1500409136.0,286045734.9,N
1500409155.8,286045731.3,N
1500409175.6,286045732.7,N
1500409195.5,286045735.3,N
1500409215.3,286045734.5,N
1500409235.2,286045735.9,N
1500409255.9,286045735.6,N
1500409275.7,286045734.7,N
1500409295.6,286045735.1,N
1500409315.4,286045734.5,N
1500409335.2,286045736.0,N
1500409355.1,286045734.6,N
1500409356.0,286045734.6,N
1500409375.8,286045733.6,N
1500409395.7,286045730.4,N
1500409415.5,286045732.4,N
1500409435.3,286045733.6,N
1500409455.2,286045735.5,N
1500409475.0,286045734.4,N
1500409475.9,286045734.4,N
1500409495.7,286045734.4,N
1500409515.6,286045735.6,N
1500409535.4,286045737.0,N
1500409555.3,286045738.2,N
1500409575.1,286045738.4,N
1500409576.0,286045738.4,N
1500409595.8,286045734.9,N
1500409615.7,286045731.8,N
1500409635.5,286045732.2,N
1500409655.3,286045733.4,N
1500409675.2,286045734.9,N
1500409695.0,286045736.8,N
1500409695.9,286045736.8,N
1500409715.8,286045736.4,N
1500409735.6,286045737.1,N
1500409755.4,286045731.9,N
1500409775.3,286045727.8,N
1500409795.1,286045726.5,N
1500409815.8,286045729.0,N
1500409835.7,286045729.0,N
1500409855.5,286045728.5,N
1500409875.4,286045728.2,N
1500409895.2,286045729.8,N
1500409915.0,286045731.1,N
1500409915.9,286045731.1,N
1500409935.8,286045730.9,N
1500409955.6,286045734.7,N
1500409975.4,286045735.5,N
1500409995.3,286045734.4,N
1500410015.1,286045734.6,N
1500410035.9,286045736.5,N
1500410055.7,286045737.7,N
1500410075.5,286045738.9,N
1500410095.4,286045739.9,N
1500410115.2,286045739.1,N
1500410135.0,286045742.6,N
1500410135.9,286045742.6,N
1500410155.8,286045744.9,N
1500410175.6,286045741.9,N
1500410195.5,286045735.8,N
1500410215.3,286045734.2,N
1500410235.1,286045734.9,N
1500410255.9,286045737.0,N
1500410275.7,286045733.6,N
1500410295.5,286045738.0,N
1500410315.4,286045739.3,N
1500410335.2,286045737.9,N
1500410355.1,286045738.2,N
1500410356.0,286045738.2,N
1500410375.8,286045737.9,N
1500410395.6,286045738.6,N
1500410415.5,286045739.3,N
1500410435.3,286045739.6,N
1500410455.1,286045739.4,N
1500410475.9,286045740.8,N
1500410495.7,286045741.3,N
1500410515.6,286045736.0,N
1500410535.4,286045731.4,N
1500410555.2,286045735.2,N
1500410575.1,286045731.7,N
1500410576.0,286045731.7,N
1500410595.8,286045731.6,N
1500410615.6,286045733.9,N
1500410635.5,286045731.4,N
1500410655.3,286045732.2,N
1500410675.2,286045730.6,N
1500410695.0,286045729.7,N
1500410695.9,286045729.7,N
1500410715.7,286045734.0,N
1500410735.6,286045733.8,N
1500410755.4,286045735.8,N
1500410775.3,286045735.1,N
1500410795.1,286045734.9,N
1500410796.0,286045734.9,N
1500410815.8,286045734.4,N
1500410835.7,286045733.0,N
1500410855.5,286045734.0,N
1500410875.3,286045731.8,N
1500410895.2,286045730.0,N
1500410915.0,286045730.4,N
1500410915.9,286045730.4,N
1500410935.8,286045728.1,N
1500410955.6,286045727.9,N
1500410975.4,286045730.3,N
1500410995.3,286045730.4,N
1500411015.1,286045728.3,N
1500411035.8,286045730.4,N
1500411055.7,286045732.2,N
1500411075.5,286045732.3,N
1500411095.4,286045731.8,N
1500411115.2,286045732.0,N
1500411135.0,286045731.1,N
1500411135.9,286045731.1,N
1500411155.8,286045731.9,N
1500411175.6,286045731.7,N
1500411195.4,286045733.5,N
1500411215.3,286045733.3,N
1500411235.1,286045734.8,N
1500411255.9,286045735.6,N
1500411275.7,286045732.8,N
1500411295.5,286045733.7,N
1500411315.4,286045733.4,N
1500411335.2,286045732.9,N
1500411355.0,286045733.7,N
1500411356.0,286045733.7,N
1500411375.8,286045732.6,N
1500411395.6,286045736.2,N
1500411415.5,286045735.6,N
1500411435.3,286045732.5,N
1500411455.1,286045732.5,N
1500411475.9,286045735.0,N
1500411495.7,286045735.9,N
1500411515.6,286045738.2,N
1500411535.4,286045738.5,N
1500411555.2,286045737.3,N
1500411575.1,286045739.1,N
1500411576.0,286045739.1,N
1500411595.8,286045741.1,N
